GFSCGP_925_thetae_057.txt.gz
Theta_e
316 317 319 319 318 319 320 320 321 320 316 315 318 318 318 313 311 312 311 309 307 306 302 301 302 304 303 304 305 307 309 308 308 308 306 305 303 301 299 298 299 301 301 302
315 317 318 319 318 319 319 319 319 319 315 314 317 318 318 316 312 312 311 309 307 304 303 301 302 304 303 303 304 305 306 309 308 307 304 302 299 297 295 294 294 295 296 296
319 319 316 317 316 317 317 318 319 319 316 314 316 318 319 318 312 309 309 308 306 305 304 302 302 302 302 302 302 303 304 304 303 301 299 297 295 295 294 292 291 291 292 292
317 317 314 315 316 315 318 318 317 317 317 320 317 323 322 320 311 308 307 306 305 304 303 301 300 301 300 299 299 300 299 300 300 301 300 300 298 294 292 291 290 289 289 289
318 313 314 316 316 315 317 315 315 316 317 319 321 319 321 317 314 310 308 306 305 303 302 301 299 297 296 296 296 296 296 296 296 296 296 294 293 292 291 290 289 288 287 288
315 313 314 315 314 314 314 315 315 315 318 325 322 322 323 319 315 313 308 305 305 303 301 299 296 294 294 294 294 294 294 293 294 294 294 293 292 291 291 290 289 288 288 287
317 316 315 313 315 312 315 317 326 326 323 325 318 323 322 320 313 314 308 306 305 302 300 298 295 294 293 293 293 293 292 292 292 292 292 292 291 291 291 290 289 289 288 286
322 323 318 314 318 320 315 319 327 332 330 327 312 320 320 313 311 309 308 306 304 302 300 297 296 294 293 292 292 291 291 291 291 290 290 290 290 290 289 289 288 288 286 285
323 325 315 314 315 318 318 319 320 321 314 320 319 316 315 308 307 306 308 305 304 302 299 297 295 294 293 292 291 291 290 290 290 289 289 289 289 289 288 288 287 286 285 284
322 325 314 311 309 311 315 315 318 318 328 329 323 321 320 312 309 307 307 306 304 301 299 298 296 294 292 291 291 290 290 289 289 289 289 289 288 288 287 287 286 285 284 283
319 320 316 309 312 316 313 315 317 318 322 330 329 322 316 317 312 309 307 305 304 302 300 298 296 294 292 291 290 290 289 289 289 289 288 288 288 287 287 286 285 285 284 283
319 321 325 321 313 312 315 316 317 320 321 319 321 323 308 313 314 310 308 305 304 303 301 299 297 294 292 291 290 289 289 288 288 288 288 288 287 287 286 286 285 284 284 283
317 319 325 323 315 310 311 313 315 316 318 323 325 323 308 308 310 310 308 306 305 303 301 299 298 295 293 291 290 289 288 288 288 288 288 287 287 286 286 285 285 284 284 283
316 319 323 327 324 317 314 313 313 315 320 321 321 321 310 309 309 309 309 307 305 304 302 300 299 297 294 292 290 289 289 288 288 288 287 287 286 286 286 285 284 284 284 283
317 318 320 321 321 320 317 316 314 314 315 320 320 319 318 311 311 309 308 306 305 304 302 300 299 298 295 293 291 290 289 288 288 287 287 287 286 286 285 285 284 284 283 282
313 318 318 320 320 320 321 317 316 314 314 315 317 318 318 315 310 308 307 306 304 303 302 301 299 298 297 294 292 290 289 288 287 287 287 286 286 286 285 284 284 283 282 282
311 313 316 321 319 319 315 315 315 316 315 315 316 316 308 308 307 307 307 305 304 303 302 301 299 298 296 295 292 291 289 288 287 287 286 286 286 286 285 284 283 282 281 280
309 311 313 319 314 320 318 312 312 315 316 314 313 311 310 308 305 306 307 306 303 302 301 300 299 298 296 294 293 292 290 288 286 286 286 286 286 285 284 284 283 281 280 279
305 311 316 319 318 316 314 304 308 314 316 314 313 307 301 300 300 302 301 303 303 301 301 300 298 298 295 294 292 291 289 287 286 286 285 285 285 285 284 283 282 281 280 278
300 303 313 311 318 320 312 303 303 308 315 308 308 305 300 298 306 310 296 295 297 297 296 295 294 293 292 291 291 289 288 287 286 286 286 286 285 285 284 284 282 280 279 278
303 306 309 314 315 316 309 296 297 313 317 304 306 302 299 303 305 298 294 293 292 291 290 292 292 291 291 290 290 288 287 287 288 287 286 285 285 285 284 283 281 279 278 277
309 310 311 312 315 315 296 293 306 304 295 299 303 301 298 295 292 292 291 290 289 289 289 289 289 290 290 290 289 288 288 289 288 287 286 286 285 284 282 281 279 278 277 275
308 310 314 312 311 294 296 295 295 294 296 294 298 296 296 292 291 291 290 289 289 289 288 288 289 288 288 288 288 288 288 287 287 286 285 284 283 281 280 279 277 276 275 273
296 293 301 303 298 297 293 296 294 292 292 292 293 294 293 291 290 290 289 289 288 288 288 288 288 288 287 287 287 287 287 286 286 285 283 282 280 279 277 276 275 274 273 273
296 294 297 295 292 292 295 294 293 292 290 290 289 290 291 290 289 289 289 288 288 288 287 287 287 287 287 287 286 286 286 285 285 283 281 279 278 276 275 274 274 273 273 273
292 295 298 301 295 298 297 297 293 292 290 290 290 288 288 289 289 288 288 288 287 287 287 286 286 286 286 286 285 284 283 283 281 279 277 276 275 274 273 273 273 272 272 272

GFSCGP_925_thetae_060.txt.gz
Theta_e
315 315 316 316 316 317 317 318 319 318 314 315 315 315 315 311 309 309 309 307 305 305 302 302 303 305 306 307 310 310 312 311 312 310 308 305 302 303 304 303 305 306 306 306
315 316 316 317 318 318 317 317 318 318 314 314 314 315 314 313 310 310 310 308 306 302 300 302 304 305 305 306 308 309 310 309 308 306 303 301 299 298 297 297 297 298 299 299
318 318 317 317 317 318 317 318 318 318 317 313 313 314 314 314 313 310 309 308 306 302 301 301 304 304 303 304 306 307 307 307 305 303 302 299 296 294 293 292 292 292 293 293
317 317 317 316 317 316 318 317 316 316 317 317 314 319 319 317 315 311 309 307 304 302 301 301 303 304 303 302 302 303 303 304 302 302 300 297 295 292 291 290 290 290 290 289
318 314 316 316 317 316 316 315 315 316 315 315 316 318 318 316 318 311 308 305 303 302 301 300 301 301 299 300 300 300 301 301 301 300 298 297 294 291 290 289 288 288 288 288
315 313 314 315 314 314 314 315 315 315 316 319 318 320 320 320 317 313 308 306 303 301 299 299 298 297 296 297 297 297 297 297 298 298 296 295 292 291 289 289 288 288 287 287
316 314 314 313 313 312 315 316 321 322 320 322 318 319 321 318 314 313 309 306 303 301 299 296 294 295 295 295 294 294 294 294 294 294 293 293 292 291 290 289 288 287 286 286
319 321 315 313 315 317 314 316 321 323 325 323 313 317 318 309 307 308 308 306 303 301 298 295 294 294 294 294 293 293 293 292 293 293 292 292 291 290 290 289 288 287 286 286
320 322 315 313 314 315 316 316 316 320 308 315 319 316 314 309 307 307 306 304 303 300 298 295 294 294 293 293 292 292 292 291 291 291 291 290 290 290 289 288 287 287 286 285
319 324 314 308 311 312 315 315 318 318 325 326 322 319 318 311 309 306 306 304 303 300 298 296 294 293 293 292 291 291 291 290 290 290 290 289 289 289 288 287 287 286 285 285
317 320 312 310 311 315 312 314 316 318 318 327 322 322 315 316 310 307 306 304 303 300 298 296 294 293 292 292 291 291 290 290 289 289 289 289 288 288 287 287 286 286 285 285
316 321 319 314 311 311 314 316 316 321 322 318 321 323 310 309 310 307 306 304 303 300 298 296 295 293 292 291 291 290 290 289 289 289 289 288 288 287 287 286 286 285 285 285
318 320 325 324 314 310 312 313 315 317 316 320 319 321 307 307 309 306 305 304 302 301 298 296 294 293 291 290 290 290 289 289 289 289 288 288 287 287 287 286 286 285 285 285
317 317 320 325 322 313 312 312 313 315 319 319 320 319 311 308 308 307 305 303 302 301 299 297 295 293 292 290 289 289 289 289 289 288 288 288 287 287 287 286 286 285 285 284
318 318 318 319 319 319 314 313 313 314 316 318 318 318 317 311 307 307 306 303 302 301 300 297 296 294 292 291 289 289 289 289 288 288 288 288 287 287 286 286 285 285 284 284
314 317 316 319 316 317 320 318 315 312 314 315 316 316 315 313 307 305 306 305 303 302 301 299 297 296 293 291 290 289 288 288 288 288 288 288 287 286 286 286 285 285 284 283
312 313 315 320 315 317 319 319 319 319 313 313 315 314 308 309 307 305 305 304 304 303 302 300 298 297 295 292 290 289 289 288 288 288 288 287 287 286 286 286 285 284 283 282
309 311 314 319 316 322 316 308 316 318 318 316 312 312 307 309 307 305 305 304 302 301 301 300 299 298 296 294 291 290 289 289 288 288 287 287 287 286 286 285 285 284 283 283
308 310 315 317 318 314 312 304 307 312 316 314 315 314 304 303 306 306 303 303 301 300 299 300 299 298 296 295 292 290 290 289 288 287 287 287 287 286 286 285 285 284 283 282
303 304 312 314 317 318 309 299 301 307 312 306 309 309 301 304 311 310 300 299 300 299 300 299 298 297 295 294 293 292 290 289 287 287 287 287 286 286 286 286 285 284 283 283
302 304 308 313 314 313 308 297 300 309 310 297 300 301 301 307 306 302 296 296 295 295 295 296 296 294 294 294 293 291 289 288 289 288 287 286 286 286 286 285 284 284 283 281
307 308 307 309 313 314 295 296 307 300 294 296 302 299 298 294 293 292 291 290 289 289 291 292 291 291 292 292 291 289 289 289 288 287 287 286 286 285 285 284 283 282 281 279
310 309 311 310 310 294 294 294 294 293 295 294 300 297 294 291 291 289 289 288 287 288 288 290 290 289 289 289 290 289 289 288 288 287 286 286 285 284 283 283 282 280 279 277
298 294 301 302 298 296 293 297 296 294 292 292 293 295 293 291 289 288 287 287 287 287 287 288 288 287 287 288 288 289 288 287 287 286 285 284 283 283 281 280 279 279 277 276
296 295 297 295 294 294 296 295 296 297 291 289 289 291 290 289 288 288 287 286 286 287 287 288 288 288 287 286 286 286 286 286 285 284 283 282 281 280 279 278 278 277 276 276
291 294 299 300 296 299 299 297 297 295 291 290 289 289 289 288 288 287 286 287 287 286 286 287 287 287 286 285 284 284 284 284 284 283 281 280 279 277 276 275 275 274 274 274

GFSCGP_925_thetae_063.txt.gz
Theta_e
312 312 313 313 311 313 315 315 316 314 314 313 312 312 311 308 306 305 305 305 304 302 301 302 304 306 308 310 312 314 315 314 315 310 309 308 305 307 308 309 308 309 309 309
314 314 314 313 313 314 314 314 315 314 313 312 312 312 311 310 309 308 307 307 304 300 299 301 304 305 306 309 311 311 311 310 308 307 306 304 303 302 302 302 303 304 304 304
315 315 315 314 315 316 315 315 315 316 314 311 312 313 312 311 310 308 308 307 305 301 300 299 303 304 306 308 310 310 309 306 306 306 305 300 298 296 296 296 295 296 297 296
314 314 315 314 315 315 316 314 315 316 316 316 312 318 313 312 311 309 309 306 304 300 300 300 302 302 304 307 309 308 307 306 305 305 303 301 299 293 292 292 291 291 291 290
316 314 315 316 315 314 316 314 314 314 314 314 314 314 314 313 314 315 309 305 302 301 300 300 302 302 303 305 305 305 306 305 303 303 302 300 295 291 290 289 289 289 289 289
313 312 313 314 312 313 312 313 313 313 313 316 314 315 317 316 316 315 310 304 301 300 299 300 301 302 301 302 303 302 302 300 300 299 298 299 295 290 289 288 288 288 287 287
314 313 313 312 313 312 314 314 317 319 317 319 314 315 318 316 314 313 310 305 300 300 299 298 296 296 298 298 299 300 300 298 299 298 297 296 292 290 289 288 288 287 286 286
316 319 314 311 312 313 312 314 317 318 321 319 312 317 317 312 309 306 306 305 301 299 299 296 295 295 295 296 297 297 297 296 296 296 295 293 291 289 289 289 288 288 287 286
317 317 311 311 312 313 313 315 314 318 303 312 317 315 313 310 308 307 305 303 301 299 297 294 293 294 294 295 295 295 294 294 294 294 293 292 291 290 289 289 288 287 286 285
316 320 311 309 311 311 313 312 316 316 320 319 319 318 321 314 311 307 304 304 302 299 296 294 293 293 293 294 294 294 294 293 293 292 292 291 290 290 289 288 287 286 285 285
314 318 313 310 312 314 312 315 315 316 316 319 317 322 313 315 312 308 305 303 302 299 297 295 294 292 293 292 292 292 292 292 291 291 291 290 290 289 289 288 287 286 285 285
313 318 312 313 310 309 313 315 316 321 319 316 316 323 309 309 308 307 305 303 302 299 297 294 293 292 291 291 291 291 291 290 290 290 290 289 289 288 288 287 286 286 285 285
315 317 316 320 314 310 312 313 315 317 316 320 324 323 306 306 309 306 304 302 301 299 296 294 293 291 291 290 290 290 290 290 290 289 289 289 288 288 287 287 286 285 286 286
316 317 316 323 320 314 312 311 313 316 322 320 322 322 314 309 308 307 303 301 300 299 297 295 293 292 291 290 289 289 289 289 289 289 289 288 288 287 287 286 286 286 286 286
318 321 319 318 317 316 311 312 313 315 317 321 321 319 318 315 311 306 304 300 300 300 297 296 294 292 291 289 289 288 289 289 289 289 288 288 287 287 287 286 286 286 286 286
315 319 317 320 316 316 318 317 314 313 314 315 317 317 313 312 311 306 304 302 301 301 299 297 295 293 291 290 289 288 288 288 289 288 288 288 287 287 286 286 286 286 286 285
314 314 316 320 314 316 318 317 317 317 315 315 316 315 313 312 310 306 304 303 302 301 300 298 296 294 292 291 289 288 288 288 288 288 288 288 287 287 286 286 286 285 285 285
308 312 316 320 316 321 316 305 314 316 316 316 315 314 307 309 309 308 304 304 303 301 300 299 297 296 293 292 290 289 288 288 288 287 287 287 287 287 286 286 286 285 285 285
308 309 315 317 318 314 313 305 311 313 315 313 315 315 313 308 305 304 301 301 303 301 300 299 298 297 294 292 290 289 288 288 287 287 287 287 287 287 286 286 285 285 285 284
305 308 313 316 317 319 306 301 301 306 313 303 310 312 312 302 307 313 301 298 298 298 299 298 298 297 295 292 291 289 288 287 287 287 287 287 287 287 287 286 286 285 285 285
304 306 311 314 316 312 306 300 301 313 308 293 296 299 300 305 306 302 298 300 297 297 299 299 298 297 297 294 290 289 288 287 288 288 288 288 288 287 287 286 286 286 285 284
305 308 307 309 311 313 296 299 311 304 295 294 299 300 298 298 295 294 294 293 293 293 294 295 294 293 293 292 290 289 288 288 288 288 288 287 287 286 286 286 286 285 284 283
309 306 307 308 309 298 295 297 294 293 294 293 297 297 295 293 293 291 290 290 290 289 289 291 290 289 290 292 292 290 290 289 289 288 287 287 287 286 286 285 285 284 283 282
301 296 304 305 302 297 294 294 296 295 292 291 292 295 292 292 290 289 287 288 287 287 287 289 289 288 288 290 291 292 291 290 289 288 287 286 286 285 284 284 284 283 282 280
297 296 298 299 296 293 295 294 297 297 291 289 289 291 292 290 288 288 286 286 286 286 287 289 288 287 286 287 288 288 288 288 287 287 285 284 284 283 283 282 281 280 280 279
292 296 301 303 298 299 300 295 294 296 292 289 289 290 289 289 288 287 285 285 286 285 286 286 286 286 284 285 285 285 285 285 285 284 283 282 281 280 279 278 277 276 275 275

GFSCGP_925_thetae_069.txt.gz
Theta_e
310 311 312 312 310 311 311 312 313 312 312 312 311 310 311 309 305 305 304 303 304 303 304 303 304 305 306 307 311 313 312 314 315 317 317 318 319 319 321 322 323 323 322 321
311 311 312 311 311 311 313 313 312 311 311 311 311 311 309 308 307 306 307 307 306 304 299 300 302 304 305 308 311 312 310 313 314 316 314 316 316 315 317 317 318 318 317 317
313 314 311 312 312 312 311 311 312 313 312 309 309 310 310 309 308 307 306 308 307 306 302 299 300 303 305 307 311 311 310 312 312 311 312 312 310 308 308 308 312 312 312 312
312 311 313 312 313 312 314 310 312 313 314 315 311 317 313 311 310 308 309 309 307 304 301 300 301 301 303 306 310 311 310 310 310 312 311 312 308 302 302 305 307 306 305 305
313 313 313 314 313 312 313 311 312 313 313 312 312 313 314 311 311 311 311 310 307 303 302 300 301 302 302 306 310 310 309 309 310 309 310 306 302 302 301 301 302 300 297 298
311 310 311 313 312 311 310 312 311 310 310 315 312 314 315 312 312 312 311 310 306 302 299 299 301 302 302 306 308 308 307 307 307 307 305 304 304 301 298 296 295 292 291 290
313 312 310 310 312 311 312 314 317 316 314 318 311 312 316 313 311 310 310 310 307 300 298 297 299 300 301 304 307 306 305 303 305 304 303 302 302 301 300 298 295 290 288 288
316 317 312 309 312 314 311 312 316 316 316 316 312 317 316 309 309 307 306 306 303 299 297 298 299 300 301 303 304 304 303 302 303 303 302 300 301 297 295 295 294 290 288 288
315 316 310 309 310 312 311 314 312 315 300 309 314 312 311 309 309 308 308 304 302 299 297 297 298 300 300 303 303 303 301 301 301 302 302 300 298 295 293 290 290 288 288 287
314 317 310 310 310 310 311 310 315 312 314 315 315 314 317 315 313 310 309 308 303 299 296 296 297 298 299 301 302 302 301 300 300 300 301 299 297 294 292 289 289 288 287 286
312 314 312 310 311 312 311 312 312 313 311 313 314 318 310 313 312 312 310 307 303 299 296 295 295 297 298 299 300 300 300 299 297 298 298 296 294 292 291 290 288 287 286 286
311 314 310 312 309 308 311 312 312 316 314 313 313 319 310 310 310 308 307 305 302 298 295 293 294 295 295 296 297 298 298 298 298 297 295 294 293 291 289 288 287 286 286 285
313 315 317 318 316 311 311 311 313 314 312 317 315 319 305 307 308 307 307 305 300 297 294 292 291 292 293 293 294 294 295 295 296 295 293 292 291 290 289 288 287 286 286 285
314 313 316 323 319 314 313 311 311 315 318 318 318 319 316 310 308 308 306 303 299 297 294 293 291 292 293 292 293 293 293 294 295 293 292 291 290 289 288 288 287 285 285 285
316 317 313 314 313 313 313 313 312 314 315 319 319 317 317 315 310 312 311 303 300 298 295 294 293 292 292 292 291 291 292 293 293 292 291 290 290 288 287 287 286 285 284 284
316 320 316 320 315 313 317 313 312 313 315 315 316 317 316 312 311 310 308 307 304 300 298 296 294 292 291 292 291 291 290 290 290 289 289 289 288 287 287 286 285 285 284 284
316 319 319 322 316 315 318 317 316 313 312 314 316 315 314 313 310 310 310 307 304 302 300 298 295 293 292 292 291 290 290 289 289 289 288 288 288 287 286 285 285 284 284 283
313 315 317 322 319 323 319 311 314 316 316 313 311 312 313 312 310 309 307 307 306 303 300 299 296 294 293 292 291 290 289 289 289 288 288 287 287 287 286 285 285 284 284 283
308 311 316 320 322 317 315 307 309 313 316 314 315 314 314 313 307 311 303 303 305 304 302 300 299 296 293 291 291 290 289 288 288 288 287 287 287 286 285 285 284 284 283 283
309 309 313 314 317 320 309 303 304 309 317 300 310 312 312 306 308 313 303 298 298 296 297 298 298 296 293 291 290 288 287 287 287 287 287 287 287 286 285 285 284 284 284 284
306 309 311 314 317 313 308 301 302 315 311 293 296 299 300 306 307 299 295 297 294 294 295 296 295 293 291 290 289 287 287 287 287 288 287 287 286 286 286 285 285 284 285 283
309 311 311 312 314 314 301 300 310 305 295 294 296 299 298 299 298 297 295 295 293 294 293 292 291 291 290 290 289 287 286 287 287 287 287 286 286 286 285 285 286 286 284 283
309 307 306 309 311 302 298 302 296 294 296 294 296 297 297 297 297 295 293 293 292 288 290 292 291 289 289 289 289 288 288 288 288 288 288 288 287 287 288 289 286 284 284 284
300 299 307 307 305 302 298 294 294 292 293 291 291 293 294 295 293 292 288 290 290 286 289 290 290 288 288 289 290 291 290 290 290 290 288 287 287 287 286 286 286 285 284 284
300 300 303 302 301 298 297 296 295 295 291 290 290 292 294 293 289 289 288 286 287 286 287 288 289 287 286 289 290 291 292 292 290 288 287 286 286 285 285 285 285 285 285 284
296 300 304 305 302 303 302 298 293 294 293 290 290 289 289 290 290 287 285 285 285 284 286 286 286 285 285 287 287 288 287 287 287 286 285 285 285 284 284 283 280 280 280 279

GFSCGP_925_thetae_072.txt.gz
Theta_e
309 311 312 311 309 310 309 310 311 310 311 311 310 309 310 308 305 305 304 304 304 303 305 305 306 306 305 306 308 309 311 312 313 315 317 321 323 321 323 325 326 326 326 325
309 311 311 310 309 311 312 312 311 310 310 310 310 310 309 309 307 308 309 307 306 305 301 301 303 304 304 306 307 309 310 311 313 314 317 318 318 320 321 322 324 322 322 322
311 312 310 311 311 312 311 311 311 312 311 308 308 310 309 309 307 307 306 307 307 307 306 299 299 302 303 305 306 308 310 310 312 314 315 315 315 313 313 315 317 319 321 318
311 311 312 311 312 311 312 309 311 312 313 314 310 315 313 311 311 308 309 307 307 306 302 300 299 300 302 304 305 307 309 310 312 312 314 315 314 306 309 313 314 316 316 317
312 311 312 312 312 310 312 310 311 312 311 311 312 313 314 311 311 311 311 309 306 304 302 300 299 301 302 303 304 306 308 309 310 311 313 313 310 310 311 309 309 310 310 312
310 309 310 312 311 310 309 311 310 308 309 315 311 313 313 311 311 311 309 308 306 305 301 299 299 301 301 303 304 306 308 307 309 310 310 310 311 308 306 304 305 303 305 305
312 311 310 310 311 310 311 313 316 314 314 317 310 312 315 312 309 309 310 309 306 303 300 297 297 299 300 302 304 306 307 304 308 308 307 306 309 308 308 307 304 300 300 299
315 316 310 308 312 313 310 312 315 313 315 314 311 316 315 309 308 306 305 304 305 304 300 297 297 299 300 302 304 306 306 304 304 305 304 304 306 304 302 302 300 297 299 298
314 315 309 308 310 312 311 313 312 314 298 308 313 311 310 309 308 308 308 306 305 302 300 297 297 299 300 302 304 306 305 304 304 303 303 302 302 301 300 299 297 294 292 291
313 316 309 310 309 309 311 309 314 311 313 312 315 313 316 314 312 309 310 309 307 303 299 296 296 298 300 302 304 305 304 302 302 301 301 301 300 300 298 298 295 293 290 289
311 313 312 310 310 312 311 312 311 312 311 313 312 318 309 312 311 311 311 308 306 303 298 295 295 298 300 301 303 303 302 303 301 301 300 298 297 297 298 299 295 291 289 288
312 313 311 311 309 307 310 312 311 316 313 312 313 319 310 311 310 309 309 307 303 301 297 294 295 296 297 299 301 301 301 301 301 299 298 297 297 297 295 293 292 290 287 287
313 317 318 318 315 310 311 310 312 312 311 316 315 320 305 306 308 306 308 305 301 300 296 294 292 293 295 296 297 298 299 300 301 298 296 295 295 294 293 292 291 289 287 286
314 313 317 323 319 313 312 310 310 314 318 317 317 318 314 310 309 308 305 304 302 299 297 293 292 292 294 294 295 296 296 297 298 296 295 294 293 293 292 292 290 287 286 286
316 317 312 313 313 312 312 313 312 313 315 319 319 317 316 314 310 309 307 307 302 300 297 295 294 292 292 293 293 294 295 295 296 295 293 292 293 292 292 290 288 286 285 285
316 315 315 319 314 312 315 313 311 313 314 315 317 317 316 312 311 311 309 309 308 303 300 298 295 293 292 292 293 293 293 293 294 293 292 292 291 290 289 287 286 285 284 284
316 314 316 321 317 318 317 317 316 311 312 313 315 314 314 313 309 310 309 308 307 305 303 301 298 295 294 293 293 292 292 291 292 292 291 291 290 289 287 286 285 284 283 284
310 311 315 321 316 322 317 311 316 316 315 311 311 313 313 312 309 307 306 308 306 305 303 301 299 298 297 295 293 293 291 290 290 290 290 290 289 287 286 285 284 283 284 284
313 312 315 318 320 318 318 309 310 314 317 313 313 312 312 311 308 311 303 304 305 302 300 299 300 300 298 295 293 292 290 289 289 288 288 288 288 286 285 284 283 283 283 283
310 312 315 317 319 320 313 304 304 310 319 307 311 313 312 309 310 313 303 299 298 296 295 295 297 297 295 292 292 290 288 288 287 287 287 287 287 286 285 284 283 284 284 283
310 310 314 316 318 315 306 301 303 316 313 296 302 309 301 307 306 299 296 297 294 293 294 294 294 292 292 291 290 288 287 287 288 288 287 287 286 286 285 284 284 283 283 283
310 312 313 312 314 315 299 302 309 306 296 294 298 300 298 299 298 297 295 295 294 292 292 291 290 290 290 290 290 287 287 287 288 288 287 287 286 286 285 285 284 283 283 282
308 306 306 307 308 301 298 302 300 297 298 295 297 297 298 298 298 297 295 293 292 287 289 289 289 288 287 288 289 287 287 287 287 287 287 286 286 286 286 285 284 284 283 283
302 303 306 305 305 307 301 298 295 294 295 294 293 293 294 296 295 294 289 291 291 287 288 289 288 287 287 287 288 289 287 287 287 287 286 286 286 285 285 285 285 284 283 284
300 300 303 304 303 300 299 296 297 295 293 291 290 291 293 292 290 289 288 286 287 286 286 289 288 286 286 288 289 289 288 288 287 287 287 287 286 286 285 286 286 286 287 286
299 302 305 306 302 302 302 300 296 295 294 290 290 290 289 291 291 287 285 285 284 284 286 286 285 284 284 286 287 288 289 290 290 288 287 287 286 286 285 285 283 283 284 284

GFSCGP_925_thetae_075.txt.gz
Theta_e
308 310 312 311 309 307 306 309 310 308 309 311 310 310 311 309 306 306 307 306 306 307 307 306 308 308 307 307 308 309 309 311 313 313 315 317 320 322 326 326 329 331 331 330
309 310 310 309 308 310 310 311 310 308 308 310 310 310 309 310 310 310 310 311 309 307 304 304 304 305 306 306 307 308 309 310 312 313 313 316 318 320 322 324 324 327 328 327
310 310 308 310 309 310 310 310 310 312 310 308 309 310 309 308 308 308 308 309 310 309 308 304 300 302 303 304 306 307 308 309 311 312 313 314 315 318 318 321 320 322 323 326
310 309 310 310 311 310 311 308 310 311 312 312 309 314 311 310 310 309 310 309 307 305 304 303 300 300 302 304 304 306 307 309 310 310 313 313 315 313 315 317 320 320 321 320
311 310 311 311 311 309 311 308 309 310 311 311 311 313 311 309 311 311 312 310 306 305 303 303 300 301 302 302 303 305 306 308 308 309 312 314 314 314 315 316 316 315 315 316
309 308 310 311 310 310 308 309 309 307 309 315 311 313 311 311 311 311 310 309 307 306 303 301 300 300 301 301 303 305 306 308 308 309 311 312 312 312 311 312 310 310 311 311
311 311 310 309 311 309 310 312 313 312 313 316 309 311 313 311 309 309 311 309 306 305 304 301 299 298 299 301 303 304 306 307 307 309 310 310 310 312 312 313 310 308 306 307
314 314 310 308 311 312 310 311 313 311 313 313 310 315 315 309 308 306 305 305 305 304 302 300 298 298 299 301 302 303 305 306 305 307 308 308 308 310 309 312 310 309 309 311
313 314 309 308 309 311 310 313 310 313 297 310 312 311 310 309 308 308 308 307 307 305 302 300 297 298 299 301 302 303 305 305 303 306 306 305 306 306 305 305 305 304 303 305
313 316 309 309 309 309 310 309 314 310 313 312 314 313 315 314 312 310 309 309 307 305 301 298 297 298 299 301 302 304 305 303 303 305 306 306 305 305 304 304 303 302 302 300
311 313 311 309 309 311 310 311 311 311 311 314 312 318 308 311 310 311 309 308 307 305 301 298 297 298 299 300 302 303 304 303 303 305 305 304 303 302 301 302 302 301 297 297
311 314 319 311 308 307 309 311 310 315 312 310 312 319 308 309 309 308 307 306 305 303 300 297 296 297 297 299 301 303 303 303 303 305 304 302 302 301 299 299 300 299 297 293
313 317 320 319 314 310 311 310 312 311 310 313 316 320 306 306 308 307 308 305 303 302 299 296 295 295 296 297 299 301 302 302 302 302 303 300 300 299 298 298 298 296 295 291
315 314 319 321 319 312 312 310 310 314 317 316 316 318 313 311 309 308 305 303 302 300 299 296 295 294 295 296 298 298 299 300 301 300 300 298 297 297 297 297 296 295 294 291
315 315 314 316 312 312 312 312 311 313 315 317 318 315 315 313 310 308 305 304 303 302 299 298 297 295 294 295 296 296 297 298 298 298 297 297 298 297 294 293 294 293 291 288
313 314 312 316 316 313 315 312 311 311 313 313 315 316 315 311 309 310 309 307 306 305 302 301 298 295 295 295 295 295 295 296 296 296 295 295 294 293 292 292 290 289 287 286
313 311 314 317 313 316 318 316 316 312 311 312 314 314 314 311 310 309 308 307 307 306 305 303 301 299 298 297 297 294 294 294 293 294 294 293 293 291 290 290 288 287 285 284
314 314 313 317 314 319 315 311 314 315 314 311 312 313 312 310 308 307 307 307 306 304 304 303 301 301 301 300 297 296 294 293 292 291 291 291 291 290 289 288 287 286 284 283
312 313 316 317 318 316 315 309 311 314 317 314 311 311 312 312 308 309 303 304 306 304 301 299 299 298 299 299 297 294 292 291 290 290 290 290 289 288 287 286 285 284 283 282
310 313 315 316 318 318 310 303 304 310 319 312 312 313 312 310 311 314 303 300 300 296 295 295 295 295 295 295 293 292 290 289 288 289 289 289 290 289 287 285 284 283 282 282
308 311 314 316 317 315 308 300 305 317 314 296 305 311 311 310 309 301 297 298 296 295 295 294 293 293 293 292 291 289 288 288 289 289 289 288 288 288 287 285 283 283 283 283
306 310 312 313 314 315 299 302 310 304 299 296 300 302 301 301 300 299 297 296 295 295 293 291 289 289 289 290 290 288 288 288 288 288 287 287 286 286 285 284 283 283 283 282
307 307 304 308 309 303 299 302 301 298 297 296 297 298 299 299 298 297 296 295 293 288 289 288 288 286 287 288 290 287 287 288 288 287 287 286 286 285 285 284 283 282 282 282
297 299 303 304 303 304 301 299 299 298 297 295 294 293 296 297 296 296 290 291 291 286 288 288 287 286 286 287 288 288 287 287 287 286 285 285 285 285 284 284 284 283 283 283
297 298 300 302 301 301 301 299 299 298 296 296 293 291 293 294 291 290 289 287 288 287 287 288 287 286 286 288 288 287 287 287 287 286 286 286 285 285 284 284 284 284 283 283
296 299 302 301 299 299 299 298 297 296 296 293 292 291 290 291 291 287 286 286 284 284 286 286 285 285 284 287 287 287 287 287 288 287 286 286 286 285 285 284 283 284 285 284